Weather History for EGNH - February, 2013

Change the Weather History Date:

Wednesday, February 6, 2013

  Actual Average Record
Temperature  
Mean Temperature 40 °F -  
Max Temperature 42 °F 45 °F 51 °F (2000)
Min Temperature 39 °F 36 °F 23 °F (2007)
Degree Days  
Heating Degree Days 24    
Moisture  
Dew Point 31 °F    
Average Humidity 66    
Maximum Humidity 76    
Minimum Humidity 52    
Precipitation  
Precipitation 0.00 in - - ()
Sea Level Pressure  
Sea Level Pressure 29.99 in    
Wind  
Wind Speed 14 mph ()    
Max Wind Speed 20 mph    
Max Gust Speed 30 mph    
Visibility 6.2 miles    
Events      
Averages and records for this station are not official NWS values.
T = Trace of Precipitation, MM = Missing Value Source: Averaged Metar Reports

Daily Weather History Graph

Daily Weather History Graph

Search for Another Location

Airport or City:

Trip Planner

Search our weather history database for the weather conditions in past years. The results will help you decide how hot, cold, wet, or windy it might be!

Date:

Astronomy

Feb. 06, 2013 Rise Set
Actual Time 7:49 AM GMT 5:04 PM GMT
Civil Twilight 7:11 AM GMT 5:41 PM GMT
Nautical Twilight 6:29 AM GMT 6:23 PM GMT
Astronomical Twilight 5:48 AM GMT 7:04 PM GMT
Moon 4:37 AM GMT (2/6) 12:48 PM GMT (2/6)
Length of Visible Light 10h 30m
Length of Day
9h 15m
Waning Crescent, 19% of the Moon is Illuminated
Feb 6
Waning Crescent
Feb 10
New
Feb 17
First Quarter
Feb 25
Full
Mar 4
Last Quarter

Hourly Weather History & Observations

Time (GMT) Temp. Windchill Dew Point Humidity Pressure Visibility Wind Dir Wind Speed Gust Speed Precip Events Conditions
2:50 AM 42 °F - 36 °F 71%  in - NNW 16.1 mph - -  
5:50 AM 41 °F - 31 °F 57%  in - North 18.4 mph - -  
5:50 AM 41.0 °F 32.2 °F 32.0 °F 70% 29.77 in 6.2 mi North 18.4 mph 29.9 mph N/A   Partly Cloudy
6:20 AM 41.0 °F 32.8 °F 32.0 °F 70% 29.77 in 6.2 mi North 16.1 mph - N/A   Partly Cloudy
6:50 AM 41.0 °F 32.8 °F 33.8 °F 76% 29.80 in 6.2 mi NNW 16.1 mph - N/A   Partly Cloudy
7:50 AM 39.2 °F 30.5 °F 32.0 °F 75% 29.83 in 6.2 mi NNW 16.1 mph - N/A   Partly Cloudy
8:20 AM 39.2 °F 30.5 °F 32.0 °F 75% 29.86 in 6.2 mi NNW 16.1 mph - N/A   Partly Cloudy
8:50 AM 39 °F - 30 °F 61%  in - NNW 11.5 mph - -  
9:20 AM 39.2 °F 30.8 °F 32.0 °F 75% 29.89 in 6.2 mi NNW 15.0 mph - N/A   Partly Cloudy
9:50 AM 39.2 °F 29.8 °F 32.0 °F 75% 29.92 in 6.2 mi NNW 18.4 mph - N/A   Partly Cloudy
10:20 AM 39.2 °F 30.5 °F 32.0 °F 75% 29.92 in 6.2 mi NNW 16.1 mph - N/A   Partly Cloudy
10:50 AM 41.0 °F 32.8 °F 32.0 °F 70% 29.95 in 6.2 mi NNW 16.1 mph - N/A   Partly Cloudy
11:20 AM 41.0 °F 32.8 °F 32.0 °F 70% 29.95 in 6.2 mi NNW 16.1 mph - N/A   Partly Cloudy
11:50 AM 41 °F - 29 °F 52%  in - NNW 16.1 mph - -  
11:50 AM 41.0 °F 32.8 °F 30.2 °F 65% 29.98 in 6.2 mi NNW 16.1 mph - N/A   Partly Cloudy
12:20 PM 42.8 °F 35.1 °F 32.0 °F 66% 29.98 in 6.2 mi NNW 16.1 mph - N/A   Partly Cloudy
12:50 PM 42.8 °F 34.3 °F 30.2 °F 61% 29.98 in 6.2 mi NNW 19.6 mph - N/A   Partly Cloudy
1:20 PM 42.8 °F 34.8 °F 30.2 °F 61% 29.98 in 6.2 mi NNW 17.3 mph - N/A   Partly Cloudy
1:50 PM 42.8 °F 34.3 °F 30.2 °F 61% 30.01 in 6.2 mi NNW 19.6 mph - N/A   Scattered Clouds
2:20 PM 42.8 °F 34.8 °F 30.2 °F 61% 30.01 in 6.2 mi North 17.3 mph - N/A   Scattered Clouds
2:50 PM 42.8 °F 35.1 °F 32.0 °F 66% 30.01 in 6.2 mi North 16.1 mph - N/A   Scattered Clouds
3:20 PM 42.8 °F 35.1 °F 30.2 °F 61% 30.04 in 6.2 mi North 16.1 mph - N/A   Partly Cloudy
3:50 PM 42.8 °F 35.4 °F 30.2 °F 61% 30.04 in 6.2 mi NNW 15.0 mph - N/A   Partly Cloudy
4:20 PM 42.8 °F 35.4 °F 32.0 °F 66% 30.06 in 6.2 mi NNW 15.0 mph - N/A   Scattered Clouds
4:50 PM 42.8 °F 37.0 °F 32.0 °F 66% 30.06 in 6.2 mi NNW 10.4 mph - N/A   Scattered Clouds
5:20 PM 41.0 °F 34.3 °F 30.2 °F 65% 30.06 in 6.2 mi NNW 11.5 mph - N/A   Partly Cloudy
5:50 PM 41.0 °F 34.7 °F 28.4 °F 61% 30.09 in 6.2 mi North 10.4 mph - N/A   Partly Cloudy
6:20 PM 39.2 °F 31.6 °F 28.4 °F 65% 30.09 in 6.2 mi North 12.7 mph - N/A   Partly Cloudy
6:50 PM 39.2 °F 32.0 °F 28.4 °F 65% 30.09 in 6.2 mi North 11.5 mph - N/A   Partly Cloudy
7:20 PM 39.2 °F 31.6 °F 28.4 °F 65% 30.12 in - North 12.7 mph - N/A   Clear
7:50 PM 39.2 °F 31.2 °F 28.4 °F 65% 30.12 in - NNW 13.8 mph - N/A   Clear
8:20 PM 39.2 °F 32.0 °F 30.2 °F 70% 30.12 in - NNW 11.5 mph - N/A   Clear
8:50 PM 39 °F - 30 °F 60%  in - NNW 10.4 mph - -  
8:50 PM 39.2 °F 32.5 °F 30.2 °F 70% 30.12 in - NNW 10.4 mph - N/A   Clear
11:50 PM 39 °F - 32 °F 68%  in - NNW 12.7 mph - -